Regional Weather Roundup
Issued by NWS Wakefield, VA

Home | Current Version | Previous Version | Graphics & Text | Print | Product List | Glossary On
Versions: 1 2 3 4 5 6 7 8 9 10 11 12 13 14 15 16 17 18 19 20 21 22 23 24 25 26 27 28 29 30 31 32 33 34 35 36 37 38 39 40 41 42 43 44 45 46 47 48 49 50
000
ASUS41 KAKQ 252315
RWRAKQ

REGIONAL WEATHER ROUNDUP
NATIONAL WEATHER SERVICE WAKEFIELD VA
700 PM EDT THU MAY 25 2017

Note: "fair" indicates few or no clouds below 12,000 feet with no
significant weather and/or obstructions to visibility. * = Denotes
station may not report precipitation (e.g., rain,snow,etc.),
thunder or fog.

VAZ042-051-052>054-056-260000-
NORTHERN VIRGINIA

CITY           SKY/WX    TMP DP  RH WIND       PRES   REMARKS
WASH NATIONAL  LGT RAIN  63  60  90 N10       29.48R
DULLES         TSTM      60  55  83 W7        29.51R
FORT BELVOIR   CLOUDY    61  58  92 CALM      29.48R
QUANTICO       CLOUDY    63  63 100 CALM      29.48R
FREDERICKSBRG* CLOUDY    66  62  87 S6        29.47S
STAFFORD*      CLOUDY    63  61  94 CALM      29.51F
WARRENTON      TSTM      60  55  82 N12G22    29.50R
CULPEPER*      RAIN      61  58  90 N5        29.51R
MANASSAS*      CLOUDY    62  58  86 NW15      29.52R THUNDER
LEESBURG*      RAIN      61  61 100 N6        29.50S
WINCHESTER     LGT RAIN  59  59 100 CALM        N/A
FRONT ROYAL*   CLOUDY    59  59 100 CALM      29.49R
LURAY*         MOCLDY    57  55  94 W6        29.51
$$

VAZ048-049-060>072-079>083-260000-
CENTRAL AND SOUTH CENTRAL VIRGINIA

CITY           SKY/WX    TMP DP  RH WIND       PRES   REMARKS
RICHMOND       PTSUNNY   69  58  67 SW21G32   29.51R
CHESTERFIELD*  NOT AVBL
PETERSBURG*    PTSUNNY   63  58  86 SW6       29.55R
HANOVER        CLOUDY    66  59  78 S10       29.50R
TAPPAHANNOCK*  CLOUDY    65  57  76 S5        29.49F
QUINTON*       FAIR      66  59  78 MISG      29.50R
CHARLOTTSVILLE SUNNY     70  54  56 VRB6      29.49R
GORDONSVILLE*  MOCLDY    70  59  67 W5        29.47R
ORANGE*        PTSUNNY   63  59  88 N6        29.50R
LOUISA*        PTSUNNY   70  64  83 CALM      29.47R
BUMPASS*       MOCLDY    62  60  94 CALM      29.48R
FARMVILLE*     PTSUNNY   68  49  49 SW7       29.53R
CREWE*         MOCLDY    62  58  87 CALM      29.54R
FORT PICKETT*  FAIR      63  57  83 SW10G22   29.55R
CHASE CITY*    MOCLDY    67  57  71 SW3       29.57R
CLARKSVILLE*   MOCLDY    61  61 100 S6        29.58R
SOUTH HILL*    PTSUNNY   61  58  91 SW7       29.64R
LAWRENCEVILLE* FAIR      64  55  73 SW14      29.57R
EMPORIA*       CLOUDY    61  55  82 S6G17     29.59R
$$

VAZ088>098-260000-
SOUTHEAST VIRGINIA

CITY           SKY/WX    TMP DP  RH WIND       PRES   REMARKS
NORFOLK        PTSUNNY   65  57  75 S8        29.54S
VIRGINIA BEACH CLOUDY    61  56  83 S7        29.55R
NORFOLK NAVAL  PTSUNNY   65  55  70 S5        29.55R
WEST POINT*    CLOUDY    63  57  80 S5        29.52R
SALUDA*        FAIR      61  59  94 SW6       29.49F
NEWPORT NEWS   MOSUNNY   64  57  78 SW10      29.53R
LANGLEY AFB    CLOUDY    65  56  72 SW7       29.52R
FORT EUSTIS    PTSUNNY   66  58  75 SW8       29.51R
WILLIAMSBURG*  PTSUNNY   66  59  77 SW7       29.53R
HR EXEC AP*    FAIR      64  55  72 S6        29.53S
FRANKLIN*      MOSUNNY   67  53  61 SW9       29.56R
US460-WAKEFLD  CLOUDY    64  58  80 S6        29.54R
$$

VAZ020-022-025-037-045-260000-
WEST CENTRAL AND SOUTHWEST VIRGINIA

CITY           SKY/WX    TMP DP  RH WIND       PRES   REMARKS
STAUNTON*      PTSUNNY   63  51  63 W9G16     29.53R
WAYNESBORO*    PTCLDY    63  52  68 SW9G23    29.53R
HOT SPRINGS VA CLOUDY    50  46  87 W14       29.60R
LYNCHBURG      MOSUNNY   64  50  60 SW8G21    29.57R
DANVILLE       LGT RAIN  63  55  75 W16G28    29.61R
SOUTH BOSTON*  MOCLDY    67  59  74 S6        29.58R
MARTINSVILLE   CLOUDY    58  55  91 CALM      29.64S
ROANOKE        CLOUDY    60  53  77 W16       29.60R
BLACKSBURG     LGT RAIN  55  52  91 SW8G16    29.63S
DUBLIN*        LGT RAIN  56  51  83 SW13      29.63R
MARION*        DRIZZLE   54  51  90 W21G29    29.67R
HILLSVILLE*    CLOUDY    53  48  83 SW8       29.64R
RICHLANDS*     HVY RAIN  53  24  32 W12G22    29.68R
WISE*          LGT RAIN  54  54 100 W14       29.71R
ABINGDON*      DRIZZLE   56  55  98 W10G21    29.71R
$$

MDZ021>025-VAZ099-100-260000-
SOUTHERN MARYLAND AND THE DELMARVA PENINSULA

CITY           SKY/WX    TMP DP  RH WIND       PRES   REMARKS
PATUXENT RIVER CLOUDY    61  59  93 SW12      29.47F
BAY BRIDGE APT TSTM      63  59  88 W14G32    29.48R FOG
LEONARDTOWN    CLOUDY    61  55  82 S6        29.49R
DOVER          MOSUNNY   71  71  99 N6        29.42S
GEORGETOWN     PTSUNNY   75  58  55 SW12      29.45R
EASTON         NOT AVBL
CAMBRIDGE      PTSUNNY   63  57  82 SW5G13    29.47R
SALISBURY      LGT RAIN  62  56  80 W22G31    29.48R
OCEAN CITY     PTSUNNY   66  62  87 SW10G18   29.48R
WALLOPS ISLAND CLOUDY    63  61  93 S10       29.49R
ACCOMACK*      CLOUDY    59  56  91 CALM      29.50R
$$

NCZ012>017-030>032-260000-
NORTH CENTRAL AND EASTERN NORTH CAROLINA

CITY           SKY/WX    TMP DP  RH WIND       PRES   REMARKS
ROANOKE RAPIDS HVY RAIN  59  55  88 NW9G21    29.60R
RALEIGH        LGT RAIN  65  60  84 W5        29.62R
ELIZABETH CITY CLOUDY    67  60  78 S8        29.57S
AHOSKIE*         N/A     66  56  69 CALM      29.57R
EDENTON*       CLOUDY    73  59  62 W13       29.58R
CURRITUCK*     CLOUDY    64  56  75 S7        29.58R
KILL DEVIL HLS CLOUDY    70  52  53 SW9G21    29.57R
MANTEO         CLOUDY    67  53  61 SW16      29.59R
CAPE HATTERAS  CLOUDY    71  56  58 W22G41    29.60S
TARBORO*       NOT AVBL
GOLDSBORO      SUNNY     75  53  46 W16       29.60R
WASHINGTON     LGT RAIN  67  59  75 W6        29.60R
GREENVILLE     MOSUNNY   70  57  64 W9        29.63R
NEW BERN       SUNNY     70  59  68 SW12      29.63S
WILMINGTON     SUNNY     72  56  57 SW20G25   29.66R
$$

VAZ048-260000-
ELSEWHERE

CITY           SKY/WX    TMP DP  RH WIND       PRES   REMARKS
HARRISBURG PA  CLOUDY    64  60  87 NW6       29.46F
BALTIMORE      TSTM      60  60 100 W18G35    29.49R VSB 1/2
ANNAPOLIS      RAIN      62  60  93 W8        29.46R FOG
ANDREWS AFB    LGT RAIN  60  57  91 S8        29.47S
PHILADELPHIA   LGT RAIN  63  61  93 N8        29.46F
HENDERSON NC   MOSUNNY   60  57  88 SW7       29.59F
GREENSBORO     CLOUDY    65  51  60 W12       29.63R
ROCKY MOUNT    MOSUNNY   71  56  58 W9        29.60R
$$

VAZ100-260000-
MARINE

STATION/POSITION TIME  TEMP    WIND        PRES    WAVE   SWELL
                       AIR SEA DIR/SP/G            HT/PER HT/PER
                 (UTC) (F)     (DEG/KT/KT) (MB)    (FT/S) (FT/S)
CAPE MAY NJ      2242   64 63  160/  9/ 14  996.4F
LEWES DE         2242   71 61  180/  8/ 11  996.6S
15NM E FENWICK I 2250   60 57  180/ 12/ 14  997.8S   5/ 7   3/ 7
OCEAN-CITY-INLET 2242   63 63  200/  9/ 12  998.0R
WACHAPREAGUE VA  2242   63 68  260/  6/ 12  998.6R
THOMAS POINT MD  2300   61 65  280/ 14/ 16   N/A
GOOSES REEF MD   2250   63     290/ 14/ 17  997.9F
COVE POINT MD    2242   60     300/ 13/ 16  998.0F
SOLOMONS ISLAND  2242   61 66  270/  6/  9   N/A
BISHOPS HEAD MD  2242   66 70  260/ 14/ 15  998.2R
PINEY POINT MD   2236          230/ 11/ 12   N/A
POTOMAC MD       2250   66     270/ 16/ 19  996.5F
CAMBRIDGE MD     2242   62 68                N/A
LEWISETTA VA     2242   65 69  250/ 15/ 19  997.6F
RAPPAHANNOCK LGT 2236          270/ 11/ 13  999.1R
STINGRAY PT      2250   64     270/ 16/ 19  997.6F
YORK RVR RNG VA  2242   65     250/ 12/ 14  998.6R
YORKTOWN VA      2242   64 69  220/  8/ 11  999.1R
JAMESTOWN VA     2250   65     210/ 10/ 12   N/A
DOMINION TERM VA 2242   67     260/  9/ 11  999.9R
KIPTOPEKE VA     2236      66  260/ 15/ 21   N/A
CHES BAY BRIDGE  2242   62     210/ 10/ 11 1000.0R
CAPE HENRY VA    2242   60     220/  5/  7   N/A
WILLOUBY STN VA  2242   67     240/ 12/ 13  999.7R
S CRANEY ISL VA  2242   64     240/  5/  7  999.9R
CAPE HENRY BUOY  2242      62                N/A     4/ 8
1ST LANDING BUOY 2250   65                 1000.2R
CAPE CHARLES BUO 2251      62                N/A     4/ 7
64NM E OF VA BCH 2250   67 64  240/ 25/ 33  999.4R   8/ 8
DUCK PIER NC     2242   69 62  240/ 20/ 25 1002.0R
44100 DUCK FRF   2205      64                N/A     7/ 8   2/11
44056 DUCK FRF   2230      63                N/A     4/ 7
OREGON INLET NC  2236   65 72  250/ 12/ 18 1001.4R
HATTERAS NC      2236   69 73  230/ 17/ 32 1002.1F
DIAMOND SHLS NC  2250   71 78  240/ 29/ 35 1001.2R  10/ 8
CAPE LOOKOUT NC  2300   71     240/ 15/ 23 1003.4F
$$



USA.gov is the U.S. government's official web portal to all federal, state and local government web resources and services.